This is the latest recevied weather packets stored in our database for station/object OH6HPS. If no packets are shown the sender has not sent any weather packets the latest 10 day(s).
| Time | Temp. | Humidity | Pressure | Rain* | Wind** | Luminosity | Snow |
|---|---|---|---|---|---|---|---|
| 1777829785 | 13.89° C | 51% | 1007.2 hPa | 0 mm | - | 27 W/m² | - |
| 1777829184 | 13.89° C | 51% | 1007.1 hPa | 0 mm | - | 28 W/m² | - |
| 1777828584 | 14.44° C | 51% | 1007.1 hPa | 0 mm | - | 34 W/m² | - |
| 1777828272 | 14.44° C | 51% | 1007 hPa | 0 mm | - | 49 W/m² | - |
| 1777827383 | 14.44° C | 50% | 1007.1 hPa | 0 mm | - | 72 W/m² | - |
| 1777826783 | 15° C | 51% | 1007.1 hPa | 0 mm | - | 78 W/m² | - |
| 1777826183 | 15° C | 52% | 1007.1 hPa | 0 mm | - | 83 W/m² | - |
| 1777825582 | 15° C | 50% | 1006.9 hPa | 0 mm | - | 100 W/m² | - |
| 1777824982 | 15° C | 51% | 1007.2 hPa | 0 mm | - | 93 W/m² | - |
| 1777824383 | 15.56° C | 52% | 1007.1 hPa | 0 mm | - | 141 W/m² | - |
| 1777823782 | 15.56° C | 53% | 1007.1 hPa | 0 mm | - | 106 W/m² | - |
| 1777823182 | 15.56° C | 53% | 1007.4 hPa | 0 mm | - | 93 W/m² | - |
| 1777822582 | 15.56° C | 53% | 1007.3 hPa | 0 mm | - | 109 W/m² | - |
| 1777821981 | 15.56° C | 54% | 1007.3 hPa | 0 mm | - | 255 W/m² | - |
| 1777821380 | 15.56° C | 53% | 1007.3 hPa | 0 mm | - | 120 W/m² | - |
| 1777820781 | 15.56° C | 55% | 1007.4 hPa | 0 mm | - | 137 W/m² | - |
| 1777820180 | 15.56° C | 54% | 1007.4 hPa | 0 mm | - | 150 W/m² | - |
| 1777819580 | 16.11° C | 53% | 1007.4 hPa | 0 mm | - | 162 W/m² | - |
| 1777818980 | 15.56° C | 55% | 1007.3 hPa | 0 mm | - | 199 W/m² | - |
| 1777818379 | 15.56° C | 54% | 1007.4 hPa | 0 mm | - | 172 W/m² | - |
| 1777817781 | 16.11° C | 53% | 1007.5 hPa | 0 mm | - | 125 W/m² | - |
| 1777817179 | 16.67° C | 52% | 1007.4 hPa | 0 mm | - | 183 W/m² | - |
| 1777816580 | 16.67° C | 53% | 1007.5 hPa | 0 mm | - | 223 W/m² | - |
| 1777815978 | 16.67° C | 52% | 1007.6 hPa | 0 mm | - | 238 W/m² | - |
| 1777815378 | 16.67° C | 52% | 1007.6 hPa | 0 mm | - | 267 W/m² | - |
* Rain latest hour (hover to see other rain measurements)
** Current wind speed in m/s (hover to see current wind gust speed)